COSMOS 2564 (761)

Last updated on Fri Dec 19 2025 00:03:21 GMT+0000 (Coordinated Universal Time)

1 54377U 22161A 25352.10690762 .00000111 00000+0 00000+0 0 9997 2 54377 64.7385 198.7206 0008566 204.1296 155.9125 2.13102096 23774
UTC large
Height (km)
Speed (km/s)
/
Latitude / Longitude
Inclination (degrees)
Orbital Period (minutes)
Azimuth
Elevation
Range (km)
Doppler Factor

Next 0 passes for location: London (51.5072 / 0.1276)

Sorry there are no passes over London.